Regional Weather Roundup
Issued by NWS

Current Version | Previous Version | Text Only | Print | Product List | Glossary On
Versions: 1 2 3 4 5 6 7 8 9 10 11 12 13 14 15 16 17 18 19 20 21 22 23 24 25 26 27 28 29 30 31 32 33 34 35 36 37 38 39 40 41 42 43 44 45 46 47 48 49 50
425
ASUS44 KOUN 150900
RWROK

WEATHER ROUNDUP FOR OKLAHOMA
NATIONAL WEATHER SERVICE NORMAN OK
400 AM CDT TUE OCT 15 2019

NOTE: "FAIR" INDICATES FEW OR NO CLOUDS BELOW 12,000 FEET WITH NO
      SIGNIFICANT WEATHER AND/OR OBSTRUCTIONS TO VISIBILITY.

OKZ001>007-009>012-014-015-017-151000-
NORTHWEST OKLAHOMA AND THE PANHANDLE

CITY           SKY/WX    TMP DP  RH WIND       PRES   REMARKS
GAGE           CLEAR     62  54  74 S14       29.81F
GUYMON         CLEAR     47  32  56 S10       29.82S
ENID/WOODRING  CLEAR     63  61  94 S8        29.82F FOG
$$

OKZ016-021>023-033>039-044-045-151000-
SOUTHWEST OKLAHOMA

CITY           SKY/WX    TMP DP  RH WIND       PRES   REMARKS
LAWTON/REGL    CLOUDY    71  69  93 S6        29.87F
LAWTON/FT SILL CLOUDY    69  69 100 S9        29.85F
FREDERICK      CLEAR     64  63  96 SE6       29.84F
CLINTON        CLEAR     62  58  86 S16       29.85F
HOBART         CLEAR     66  61  84 S20       29.86F
ALTUS AFB      PTCLDY    61  57  89 SE6       29.85F
$$

OKZ018>020-024>031-151000-
CENTRAL OKLAHOMA

CITY           SKY/WX    TMP DP  RH WIND       PRES   REMARKS
OKLAHOMA CITY  DRIZZLE   67  67 100 S13       29.87S FOG
OKC/WILEY POST CLOUDY    70  68  93 S16       29.85F FOG
OKC/TINKER AFB CLOUDY    68  68 100 S16       29.86F FOG
STILLWATER     MOCLDY    66  62  87 S6        29.85F
GUTHRIE        CLOUDY    69  66  90 S12G20    29.85F
$$

OKZ008-013-054>072-151000-
NORTHEAST OKLAHOMA

CITY           SKY/WX    TMP DP  RH WIND       PRES   REMARKS
TULSA          CLOUDY    69  66  90 S9        29.87F
TULSA/JONES    CLOUDY    69  66  90 S9        29.88F
PONCA CITY     MOCLDY    65  62  90 S12G17    29.84F
BARTLESVILLE   CLOUDY    66  63  90 S6        29.88F
MUSKOGEE       CLOUDY    64  61  90 S7        29.92F
$$

OKZ032-040>043-046>053-073>077-151000-
SOUTH CENTRAL/SOUTHEAST OKLAHOMA

CITY           SKY/WX    TMP DP  RH WIND       PRES   REMARKS
MCALESTER      CLOUDY    68  65  90 S6        29.90F
$$





USA.gov is the U.S. government's official web portal to all federal, state and local government web resources and services.